To NAV CANADA Home Page Login to a new session Search on AWWS site Feedback and Comments Disclaimer Vers la page française équivalente Tips FAQ What's new on the site To the Forecasts and Observations / NOTAM section To "File a Flight Plan" website Publications and other links Update of the User's profile FIC Telephone Numbers My Weather Data Folder Route Weather Data Regional Weather Data Local Weather Data To the Forecasts and Observations / NOTAM section
Request Generated 07/04/2015 at 11:46:53 UTC . Weather information available at that time is displayed.

METAR/TAF

CHESTERFIELD INLET/NU    

LWIS CYCS 041100Z AUTO 15003KT 06/02 A3000=
LWIS CYCS 041000Z AUTO 25003KT 07/02 A3000=
LWIS CYCS 040900Z AUTO 22012KT 06/01 A2998=

CYCS - No TAF is issued for this station

Your time UTC time
Weather data provided by Environment Canada and NAV CANADA